period_start,C,m1,H,J0,J1,J2,J3,J4,J5,JA,JB,JC,JD,JJ,JK,JN,#
2016-12-05 00:01:35,0.28,0.89,0.00,15.71,20.06,23.97,15.05,49.16,1025.43,2055.98,3183.01,2933.13,3326.03,599.80,616.25,4.57,0000 0000 0000 0000 000000
2016-12-05 00:06:36,0.27,0.90,0.00,15.72,20.08,23.98,15.10,49.22,1025.48,2055.99,3177.66,2929.26,3321.77,599.85,616.23,4.62,0000 0000 0000 0000 000000
2016-12-05 00:11:37,0.27,0.92,0.00,15.75,20.09,23.99,15.12,49.16,1025.63,2055.98,3172.43,2925.36,3317.37,600.26,616.56,4.67,0000 0000 0000 0000 000000
2016-12-05 00:16:39,0.25,0.93,0.00,15.75,20.11,24.00,15.05,49.08,1025.70,2055.91,3167.34,2921.56,3312.98,599.82,616.22,4.72,0000 0000 0000 0000 000000
2016-12-05 00:21:40,0.18,0.94,0.00,15.76,20.12,24.00,15.12,49.06,1025.65,2055.72,3163.12,2918.40,3309.34,600.12,616.49,4.77,0000 0000 0000 0000 000000
2016-12-05 00:26:42,0.16,0.95,0.00,15.78,20.14,24.02,15.07,49.10,1025.47,2055.27,3159.10,2915.43,3305.98,600.14,616.42,4.82,0000 0000 0000 0000 000000
2016-12-05 00:31:43,0.18,0.96,0.00,15.79,20.15,24.02,15.08,49.12,1025.43,2055.11,3155.26,2912.60,3302.73,600.14,616.30,4.87,0000 0000 0000 0000 000000
2016-12-05 00:36:45,0.18,0.97,0.00,15.80,20.17,24.04,15.09,49.18,1025.46,2055.09,3151.66,2909.92,3299.79,600.05,616.20,4.92,0000 0000 0000 0000 000000
2016-12-05 00:41:47,0.18,0.98,0.00,15.81,20.18,24.05,15.06,49.03,1025.76,2055.03,3147.98,2907.19,3296.83,600.17,616.54,4.97,0000 0000 0000 0000 000000
2016-12-05 00:46:49,0.19,0.99,0.00,15.83,20.19,24.07,15.03,49.23,1025.81,2055.01,3144.38,2904.44,3293.69,599.50,615.83,5.02,0000 0000 0000 0000 000000
2016-12-05 00:51:51,0.18,1.00,0.00,15.85,20.21,24.10,15.13,49.10,1025.77,2055.00,3141.01,2901.93,3290.70,599.92,616.25,5.07,0000 0000 0000 0000 000000
2016-12-05 00:56:53,0.17,1.01,0.00,15.85,20.22,24.10,15.08,49.29,1025.89,2055.00,3137.68,2899.45,3287.91,599.67,615.94,5.12,0000 0000 0000 0000 000000
2016-12-05 01:01:55,0.16,1.02,0.00,15.89,20.24,24.12,15.01,49.19,1025.89,2055.00,3134.57,2896.99,3285.17,599.87,616.13,5.17,0000 0000 0000 0000 000000
2016-12-05 01:06:56,0.16,1.02,0.00,15.90,20.25,24.13,15.15,49.31,1025.87,2055.00,3131.60,2894.63,3282.41,599.97,616.17,5.22,0000 0000 0000 0000 000000
2016-12-05 01:11:58,0.17,1.03,0.00,15.90,20.27,24.16,15.16,49.15,1025.89,2055.00,3128.35,2892.20,3279.55,600.30,616.55,5.27,0000 0000 0000 0000 000000
2016-12-05 01:17:00,0.18,1.04,0.00,15.93,20.28,24.17,15.07,49.22,1025.89,2054.98,3124.88,2889.54,3276.55,599.88,616.10,5.33,0000 0000 0000 0000 000000
2016-12-05 01:22:02,0.19,1.05,0.00,15.94,20.29,24.17,15.04,49.23,1025.89,2054.96,3121.19,2886.76,3273.40,599.82,616.07,5.38,0000 0000 0000 0000 000000
2016-12-05 01:27:03,0.19,1.06,0.00,15.94,20.32,24.21,15.02,49.15,1025.89,2054.93,3117.60,2884.01,3270.23,599.87,615.98,5.43,0000 0000 0000 0000 000000
2016-12-05 01:32:04,0.16,1.07,0.00,15.95,20.33,24.22,15.11,49.24,1025.89,2054.70,3113.97,2881.30,3267.08,600.13,616.30,5.48,0000 0000 0000 0000 000000
2016-12-05 01:37:06,0.15,1.08,0.00,16.00,20.34,24.23,15.03,49.16,1025.90,2054.42,3110.34,2878.65,3264.04,599.77,615.78,5.53,0000 0000 0000 0000 000000
2016-12-05 01:42:08,0.20,1.09,0.00,16.01,20.36,24.26,15.09,49.05,1025.91,2054.48,3106.59,2876.01,3261.05,599.90,615.95,5.58,0000 0000 0000 0000 000000
2016-12-05 01:47:10,0.27,1.10,0.00,16.01,20.37,24.24,15.14,49.10,1025.90,2054.20,3101.41,2872.24,3256.90,600.10,616.12,5.63,0000 0000 0000 0000 000000
2016-12-05 01:52:12,0.53,1.12,0.00,16.04,20.37,24.25,15.09,49.15,1025.90,2054.08,3091.90,2865.53,3249.49,599.95,615.82,5.68,0000 0000 0000 0000 000000
2016-12-05 01:57:13,0.59,1.15,0.00,16.06,20.39,24.27,15.10,49.05,1025.90,2054.04,3080.64,2857.50,3240.61,599.59,615.56,5.73,0000 0000 0000 0000 000000
2016-12-05 02:02:15,0.40,1.18,0.00,16.08,20.39,24.29,15.06,49.09,1025.90,2054.02,3071.88,2851.19,3233.63,600.13,615.99,5.78,0000 0000 0000 0000 000000
2016-12-05 02:07:16,0.34,1.19,0.00,16.09,20.41,24.28,15.10,49.09,1025.90,2054.02,3065.43,2846.46,3228.33,600.08,615.89,5.83,0000 0000 0000 0000 000000
2016-12-05 02:12:18,0.40,1.21,0.00,16.11,20.42,24.33,15.06,49.11,1025.91,2054.01,3057.97,2841.10,3222.37,600.16,616.00,5.88,0000 0000 0000 0000 000000
2016-12-05 02:17:19,0.34,1.23,0.00,16.11,20.43,24.32,15.11,49.13,1025.93,2054.00,3051.00,2836.01,3216.75,599.86,615.69,5.93,0000 0000 0000 0000 000000
2016-12-05 02:22:21,0.26,1.25,0.00,16.15,20.44,24.33,15.09,49.20,1025.91,2054.00,3046.14,2832.45,3212.80,600.15,615.88,5.98,0000 0000 0000 0000 000000
2016-12-05 02:27:22,0.24,1.26,0.00,16.15,20.45,24.34,15.08,49.15,1025.91,2054.00,3041.50,2829.08,3208.99,599.97,615.67,6.03,0000 0000 0000 0000 000000
2016-12-05 02:32:24,0.27,1.27,0.00,16.17,20.47,24.35,15.03,49.14,1025.90,2053.99,3036.67,2825.59,3205.07,599.92,615.57,6.08,0000 0000 0000 0000 000000
2016-12-05 02:37:25,0.28,1.28,0.00,16.17,20.48,24.38,15.07,49.16,1025.90,2053.99,3031.58,2821.82,3200.82,599.97,615.65,6.13,0000 0000 0000 0000 000000
2016-12-05 02:42:26,0.25,1.30,0.00,16.19,20.49,24.40,15.10,49.17,1025.89,2053.99,3026.70,2818.29,3197.09,600.18,615.79,6.18,0000 0000 0000 0000 000000
2016-12-05 02:47:28,0.24,1.31,0.00,16.22,20.51,24.42,15.10,49.13,1025.89,2053.97,3022.22,2815.05,3193.25,600.01,615.71,6.23,0000 0000 0000 0000 000000
2016-12-05 02:52:29,0.25,1.32,0.00,16.21,20.53,24.42,15.10,49.08,1025.85,2053.98,3017.61,2811.66,3189.34,600.19,615.75,6.28,0000 0000 0000 0000 000000
2016-12-05 02:57:31,0.27,1.34,0.00,16.25,20.54,24.42,15.09,49.04,1025.62,2053.96,3012.65,2808.06,3185.30,600.36,615.66,6.33,0000 0000 0000 0000 000000
2016-12-05 03:02:32,0.28,1.35,0.00,16.27,20.57,24.45,15.05,49.13,1025.50,2053.79,3007.34,2804.12,3180.87,599.90,615.17,6.38,0000 0000 0000 0000 000000
2016-12-05 03:07:34,0.30,1.37,0.00,16.26,20.58,24.49,15.05,49.22,1025.58,2053.69,3001.76,2800.05,3176.31,599.81,615.17,6.43,0000 0000 0000 0000 000000
2016-12-05 03:12:35,0.26,1.38,0.00,16.29,20.59,24.48,14.98,49.17,1025.70,2053.39,2996.32,2796.07,3171.85,599.22,614.55,6.48,0000 0000 0000 0000 000000
2016-12-05 03:17:36,0.28,1.39,0.00,16.30,20.61,24.51,15.05,49.23,1025.47,2053.14,2990.82,2792.02,3167.31,600.13,615.18,6.53,0000 0000 0000 0000 000000
2016-12-05 03:22:37,0.29,1.41,0.00,16.33,20.62,24.51,15.02,49.17,1025.44,2053.05,2985.34,2788.01,3162.75,599.64,614.84,6.58,0000 0000 0000 0000 000000
2016-12-05 03:27:39,0.31,1.42,0.00,16.34,20.64,24.54,15.08,49.20,1025.42,2053.02,2979.75,2783.97,3158.21,600.19,615.31,6.63,0000 0000 0000 0000 000000
2016-12-05 03:32:40,0.31,1.44,0.00,16.38,20.66,24.54,15.10,49.25,1025.41,2053.00,2974.09,2779.85,3153.65,600.43,615.41,6.68,0000 0000 0000 0000 000000
2016-12-05 03:37:41,0.29,1.45,0.00,16.38,20.67,24.57,15.04,49.34,1025.42,2053.00,2968.57,2775.86,3149.28,599.91,614.85,6.73,0000 0000 0000 0000 000000
2016-12-05 03:42:42,0.29,1.47,0.00,16.38,20.69,24.59,15.06,49.38,1025.43,2053.00,2963.26,2772.01,3144.97,599.83,614.70,6.78,0000 0000 0000 0000 000000
2016-12-05 03:47:44,0.30,1.48,0.00,16.41,20.71,24.58,15.11,49.35,1025.43,2053.00,2957.82,2768.10,3140.52,600.31,615.20,6.83,0000 0000 0000 0000 000000
2016-12-05 03:52:45,0.31,1.50,0.00,16.46,20.73,24.62,15.06,49.22,1025.44,2052.99,2952.24,2764.00,3136.01,600.11,614.89,6.88,0000 0000 0000 0000 000000
2016-12-05 03:57:46,0.28,1.52,0.00,16.49,20.75,24.63,15.05,49.32,1025.43,2052.99,2947.16,2760.18,3131.76,599.70,614.44,6.93,0000 0000 0000 0000 000000
2016-12-05 04:02:47,0.25,1.53,0.00,16.50,20.77,24.66,15.02,49.19,1025.42,2052.97,2942.66,2756.77,3127.85,599.84,614.58,6.98,0000 0000 0000 0000 000000
2016-12-05 04:07:48,0.24,1.54,0.00,16.51,20.79,24.68,15.11,49.27,1025.44,2052.93,2938.22,2753.50,3124.12,600.33,615.15,7.03,0000 0000 0000 0000 000000
2016-12-05 04:12:49,0.20,1.55,0.00,16.51,20.81,24.69,15.12,49.23,1025.46,2052.65,2933.92,2750.47,3120.58,600.02,614.73,7.08,0000 0000 0000 0000 000000
2016-12-05 04:17:50,0.23,1.57,0.00,16.54,20.83,24.70,15.04,49.28,1025.44,2052.47,2929.44,2747.35,3117.19,599.66,614.27,7.13,0000 0000 0000 0000 000000
2016-12-05 04:22:52,0.22,1.57,0.00,16.56,20.84,24.73,14.99,49.35,1025.41,2052.33,2925.03,2744.17,3113.76,599.86,614.36,7.18,0000 0000 0000 0000 000000
2016-12-05 04:27:53,0.23,1.59,0.00,16.59,20.87,24.74,15.05,49.30,1025.42,2052.17,2920.71,2741.00,3110.19,600.08,614.63,7.23,0000 0000 0000 0000 000000
2016-12-05 04:32:54,0.23,1.60,0.00,16.61,20.88,24.75,15.00,49.27,1025.41,2052.06,2916.57,2737.82,3106.53,599.60,614.07,7.28,0000 0000 0000 0000 000000
2016-12-05 04:37:55,0.24,1.61,0.00,16.63,20.91,24.76,14.97,49.30,1025.47,2052.02,2912.41,2734.67,3102.90,599.38,613.82,7.33,0000 0000 0000 0000 000000
2016-12-05 04:42:57,0.24,1.62,0.00,16.64,20.93,24.79,15.18,49.31,1025.56,2052.00,2908.09,2731.58,3099.39,600.17,614.56,7.38,0000 0000 0000 0000 000000
2016-12-05 04:47:58,0.23,1.64,0.00,16.67,20.95,24.82,15.03,49.22,1025.49,2052.00,2903.90,2728.53,3096.01,600.18,614.70,7.43,0000 0000 0000 0000 000000
2016-12-05 04:52:59,0.24,1.65,0.00,16.69,20.98,24.82,15.04,49.31,1025.44,2052.00,2899.78,2725.46,3092.62,600.40,614.78,7.48,0000 0000 0000 0000 000000
2016-12-05 04:58:00,0.23,1.66,0.00,16.68,21.00,24.85,15.02,49.32,1025.43,2051.99,2895.76,2722.45,3089.16,599.91,614.22,7.53,0000 0000 0000 0000 000000
2016-12-05 05:03:01,0.23,1.67,0.00,16.70,21.02,24.85,15.06,49.37,1025.47,2051.98,2891.74,2719.48,3085.80,600.15,614.45,7.59,0000 0000 0000 0000 000000
2016-12-05 05:08:03,0.23,1.68,0.00,16.74,21.04,24.89,14.99,49.42,1025.51,2051.97,2887.75,2716.43,3082.38,599.68,614.01,7.64,0000 0000 0000 0000 000000
2016-12-05 05:13:04,0.19,1.69,0.00,16.77,21.07,24.92,15.09,49.38,1025.49,2051.60,2883.73,2713.38,3078.87,600.02,614.17,7.69,0000 0000 0000 0000 000000
2016-12-05 05:18:05,0.21,1.70,0.00,16.78,21.09,24.91,15.01,49.23,1025.45,2051.26,2879.83,2710.39,3075.42,599.97,614.07,7.74,0000 0000 0000 0000 000000
2016-12-05 05:23:06,0.21,1.72,0.00,16.80,21.12,24.92,15.10,49.27,1025.45,2051.11,2875.98,2707.42,3072.07,600.31,614.38,7.79,0000 0000 0000 0000 000000
2016-12-05 05:28:07,0.23,1.73,0.00,16.86,21.14,24.95,15.07,49.17,1025.63,2051.03,2871.86,2704.40,3068.74,600.19,614.16,7.84,0000 0000 0000 0000 000000
2016-12-05 05:33:08,0.24,1.74,0.00,16.93,21.17,24.97,14.99,49.14,1025.81,2051.00,2867.67,2701.33,3065.32,600.04,613.95,7.89,0000 0000 0000 0000 000000
2016-12-05 05:38:10,0.24,1.75,0.00,16.94,21.19,24.99,14.97,49.15,1025.81,2051.00,2863.53,2698.26,3061.89,599.93,613.96,7.94,0000 0000 0000 0000 000000
2016-12-05 05:43:11,0.23,1.76,0.00,16.98,21.22,25.02,14.97,49.25,1025.83,2051.00,2859.56,2695.32,3058.54,599.75,613.66,7.99,0000 0000 0000 0000 000000
2016-12-05 05:48:13,0.24,1.78,0.00,17.00,21.24,25.06,15.05,49.25,1025.78,2051.00,2855.58,2692.36,3055.14,600.03,613.95,8.04,0000 0000 0000 0000 000000
2016-12-05 05:53:14,0.23,1.79,0.00,17.01,21.26,25.09,14.96,49.27,1025.55,2050.99,2851.51,2689.38,3051.75,599.78,613.46,8.09,0000 0000 0000 0000 000000
2016-12-05 05:58:15,0.23,1.80,0.00,17.04,21.28,25.11,15.05,49.16,1025.59,2050.96,2847.42,2686.44,3048.42,600.30,613.94,8.14,0000 0000 0000 0000 000000
2016-12-05 06:03:16,0.21,1.81,0.00,17.06,21.31,25.13,15.00,49.13,1025.52,2050.78,2843.46,2683.51,3045.04,599.99,613.62,8.19,0000 0000 0000 0000 000000
2016-12-05 06:08:17,0.18,1.82,0.00,17.08,21.33,25.16,14.99,49.13,1025.63,2050.34,2839.52,2680.59,3041.70,599.61,613.27,8.24,0000 0000 0000 0000 000000
2016-12-05 06:13:18,0.21,1.83,0.00,17.10,21.36,25.18,15.06,49.38,1025.83,2050.09,2835.62,2677.70,3038.60,600.13,613.83,8.29,0000 0000 0000 0000 000000
2016-12-05 06:18:20,0.23,1.84,0.00,17.13,21.38,25.22,15.01,49.35,1025.88,2050.02,2831.69,2674.83,3035.32,599.99,613.61,8.34,0000 0000 0000 0000 000000
2016-12-05 06:23:21,0.22,1.85,0.00,17.15,21.40,25.24,15.02,49.33,1025.89,2050.01,2827.98,2672.04,3032.14,600.07,613.65,8.39,0000 0000 0000 0000 000000
2016-12-05 06:28:22,0.23,1.86,0.00,17.18,21.43,25.28,15.07,49.42,1025.89,2050.00,2824.28,2669.22,3028.92,600.06,613.63,8.44,0000 0000 0000 0000 000000
2016-12-05 06:33:23,0.22,1.88,0.00,17.20,21.46,25.28,15.03,49.35,1025.87,2049.99,2820.52,2666.37,3025.68,599.97,613.54,8.49,0000 0000 0000 0000 000000
2016-12-05 06:38:24,0.22,1.89,0.00,17.22,21.48,25.31,14.98,49.27,1025.88,2049.98,2816.77,2663.58,3022.56,599.96,613.43,8.54,0000 0000 0000 0000 000000
2016-12-05 06:43:26,0.22,1.90,0.00,17.21,21.51,25.34,15.12,49.35,1025.89,2049.98,2813.15,2660.87,3019.53,600.48,613.84,8.59,0000 0000 0000 0000 000000
2016-12-05 06:48:27,0.22,1.91,0.00,17.25,21.54,25.36,15.03,49.27,1025.89,2049.94,2809.43,2658.08,3016.34,600.04,613.34,8.64,0000 0000 0000 0000 000000
2016-12-05 06:53:29,0.19,1.92,0.00,17.27,21.56,25.39,15.11,49.36,1025.89,2049.63,2805.56,2655.13,3013.01,600.33,613.83,8.69,0000 0000 0000 0000 000000
2016-12-05 06:58:30,0.20,1.93,0.00,17.29,21.59,25.42,15.03,49.28,1025.89,2049.13,2801.62,2652.17,3009.66,600.16,613.45,8.74,0000 0000 0000 0000 000000
2016-12-05 07:03:31,0.23,1.94,0.00,17.31,21.62,25.44,14.95,49.33,1025.89,2049.04,2797.61,2649.21,3006.41,600.06,613.30,8.79,0000 0000 0000 0000 000000
2016-12-05 07:08:33,0.26,1.95,0.00,17.32,21.64,25.46,15.06,49.46,1025.90,2049.01,2793.23,2646.01,3002.85,599.94,613.27,8.84,0000 0000 0000 0000 000000
2016-12-05 07:13:34,0.31,1.97,0.00,17.36,21.67,25.48,14.96,49.33,1025.90,2049.00,2788.13,2642.28,2998.71,600.01,613.09,8.89,0000 0000 0000 0000 000000
2016-12-05 07:18:35,0.33,1.99,0.00,17.40,21.68,25.52,14.99,49.37,1025.90,2049.00,2782.69,2638.30,2994.32,599.88,612.96,8.94,0000 0000 0000 0000 000000
2016-12-05 07:23:37,0.31,2.00,0.00,17.41,21.71,25.52,14.96,49.35,1025.90,2048.98,2777.45,2634.50,2990.05,599.72,612.83,8.99,0000 0000 0000 0000 000000
2016-12-05 07:28:38,0.29,2.02,0.00,17.43,21.73,25.54,15.09,49.43,1025.90,2048.97,2772.51,2630.89,2985.98,600.07,613.08,9.04,0000 0000 0000 0000 000000
2016-12-05 07:33:39,0.29,2.03,0.00,17.46,21.76,25.56,15.03,49.36,1025.90,2048.95,2767.62,2627.36,2981.96,600.40,613.40,9.09,0000 0000 0000 0000 000000
2016-12-05 07:38:41,0.27,2.05,0.00,17.48,21.78,25.61,14.89,49.38,1025.90,2048.72,2762.50,2623.72,2977.82,599.72,612.62,9.14,0000 0000 0000 0000 000000
2016-12-05 07:43:42,0.28,2.06,0.00,17.50,21.80,25.63,15.02,49.36,1025.90,2048.21,2757.27,2619.99,2973.54,600.01,612.89,9.19,0000 0000 0000 0000 000000
2016-12-05 07:48:44,0.32,2.08,0.00,17.54,21.83,25.66,15.06,49.29,1025.90,2048.04,2751.83,2616.00,2968.96,600.48,613.25,9.24,0000 0000 0000 0000 000000
2016-12-05 07:53:45,0.34,2.10,0.00,17.56,21.85,25.67,15.09,49.35,1025.90,2048.02,2746.26,2611.93,2964.44,600.35,613.08,9.29,0000 0000 0000 0000 000000
2016-12-05 07:58:46,0.34,2.11,0.00,17.59,21.87,25.68,15.01,49.38,1025.91,2048.00,2740.62,2607.92,2960.06,600.38,613.01,9.34,0000 0000 0000 0000 000000
2016-12-05 08:03:47,0.31,2.13,0.00,17.62,21.89,25.72,14.95,49.33,1025.90,2048.00,2735.51,2604.17,2955.86,599.67,612.30,9.39,0000 0000 0000 0000 000000
2016-12-05 08:08:48,0.24,2.14,0.00,17.61,21.92,25.73,15.03,49.42,1025.90,2048.00,2731.49,2601.21,2952.50,600.13,612.76,9.44,0000 0000 0000 0000 000000
2016-12-05 08:13:50,0.22,2.15,0.00,17.65,21.94,25.74,14.99,49.52,1025.90,2047.98,2727.90,2598.53,2949.48,599.70,612.17,9.49,0000 0000 0000 0000 000000
2016-12-05 08:18:51,0.21,2.16,0.00,17.66,21.97,25.77,15.08,49.35,1025.91,2047.99,2724.52,2595.96,2946.42,600.27,612.79,9.54,0000 0000 0000 0000 000000
2016-12-05 08:23:52,0.20,2.18,0.00,17.69,21.99,25.80,15.00,49.27,1025.92,2047.84,2721.03,2593.30,2943.43,599.82,612.31,9.59,0000 0000 0000 0000 000000
2016-12-05 08:28:53,0.19,2.18,0.00,17.70,22.02,25.82,15.01,49.30,1025.92,2047.29,2716.96,2590.27,2940.13,600.03,612.56,9.64,0000 0000 0000 0000 000000
2016-12-05 08:33:55,0.26,2.20,0.00,17.74,22.04,25.84,15.01,49.31,1025.92,2047.07,2712.56,2587.13,2936.67,600.24,612.58,9.69,0000 0000 0000 0000 000000
2016-12-05 08:38:56,0.29,2.21,0.00,17.75,22.07,25.85,14.93,49.40,1025.91,2047.04,2707.94,2583.82,2933.01,599.80,612.11,9.74,0000 0000 0000 0000 000000
2016-12-05 08:43:57,0.28,2.23,0.00,17.76,22.09,25.89,14.97,49.42,1025.90,2047.01,2703.39,2580.52,2929.36,600.08,612.34,9.79,0000 0000 0000 0000 000000
2016-12-05 08:48:58,0.27,2.24,0.00,17.76,22.11,25.92,14.93,49.32,1025.90,2047.00,2699.05,2577.38,2925.83,599.82,612.11,9.85,0000 0000 0000 0000 000000
2016-12-05 08:54:00,0.27,2.25,0.00,17.81,22.14,25.95,15.00,49.34,1025.93,2047.00,2694.72,2574.22,2922.24,600.02,612.37,9.90,0000 0000 0000 0000 000000
2016-12-05 08:59:01,0.27,2.27,0.00,17.83,22.16,25.96,15.01,49.39,1025.93,2047.00,2690.49,2571.13,2918.72,599.68,611.86,9.95,0000 0000 0000 0000 000000
2016-12-05 09:04:03,0.27,2.28,0.00,17.85,22.19,25.98,14.97,49.33,1025.95,2047.00,2686.32,2567.98,2915.21,599.91,612.11,10.00,0000 0000 0000 0000 000000
2016-12-05 09:09:04,0.26,2.29,0.00,17.87,22.22,25.99,14.99,49.38,1025.93,2047.00,2682.18,2564.94,2911.77,599.88,612.02,10.05,0000 0000 0000 0000 000000
2016-12-05 09:14:05,0.26,2.31,0.00,17.91,22.24,26.03,14.91,49.34,1025.91,2046.99,2678.08,2561.95,2908.34,600.06,612.05,10.10,0000 0000 0000 0000 000000
2016-12-05 09:19:06,0.25,2.32,0.00,17.93,22.27,26.04,15.06,49.39,1025.95,2046.99,2673.96,2559.05,2904.99,599.96,611.98,10.15,0000 0000 0000 0000 000000
2016-12-05 09:24:07,0.25,2.33,0.00,17.95,22.29,26.07,15.05,49.42,1026.06,2046.97,2669.95,2556.28,2901.77,600.17,612.23,10.20,0000 0000 0000 0000 000000
2016-12-05 09:29:09,0.24,2.35,0.00,17.98,22.32,26.09,14.93,49.47,1026.01,2046.86,2665.96,2553.27,2898.44,599.92,611.99,10.25,0000 0000 0000 0000 000000
2016-12-05 09:34:10,0.21,2.36,0.00,17.98,22.35,26.12,14.98,49.42,1026.05,2046.56,2662.00,2550.39,2895.07,599.90,611.84,10.30,0000 0000 0000 0000 000000
2016-12-05 09:39:11,0.23,2.37,0.00,18.02,22.38,26.15,14.99,49.52,1026.15,2046.26,2658.16,2547.46,2891.83,599.92,611.85,10.35,0000 0000 0000 0000 000000
2016-12-05 09:44:13,0.22,2.38,0.00,18.04,22.40,26.16,14.95,49.54,1026.01,2046.07,2654.35,2544.69,2888.63,599.98,611.78,10.40,0000 0000 0000 0000 000000
2016-12-05 09:49:14,0.24,2.39,0.00,18.06,22.43,26.18,14.97,49.44,1025.93,2046.01,2650.52,2541.84,2885.41,600.14,611.98,10.45,0000 0000 0000 0000 000000
2016-12-05 09:54:16,0.25,2.40,0.00,18.09,22.45,26.19,15.01,49.55,1025.92,2046.00,2646.67,2539.01,2882.23,600.19,611.83,10.50,0000 0000 0000 0000 000000
2016-12-05 09:59:17,0.25,2.42,0.00,18.12,22.48,26.24,15.01,49.45,1025.95,2046.00,2642.80,2536.20,2879.11,600.34,611.89,10.55,0000 0000 0000 0000 000000
2016-12-05 10:04:18,0.25,2.43,0.00,18.13,22.50,26.25,14.98,49.48,1025.94,2045.99,2638.98,2533.32,2875.97,599.83,611.35,10.60,0000 0000 0000 0000 000000
2016-12-05 10:09:20,0.25,2.44,0.00,18.15,22.53,26.25,14.95,49.40,1025.95,2045.97,2635.14,2530.44,2872.67,599.88,611.45,10.65,0000 0000 0000 0000 000000
2016-12-05 10:14:21,0.24,2.45,0.00,18.17,22.56,26.30,15.03,49.32,1026.05,2045.84,2631.36,2527.55,2869.32,600.08,611.63,10.70,0000 0000 0000 0000 000000
2016-12-05 10:19:22,0.21,2.47,0.00,18.19,22.58,26.34,14.92,49.23,1026.01,2045.42,2627.28,2524.53,2865.98,599.86,611.31,10.75,0000 0000 0000 0000 000000
2016-12-05 10:24:23,0.23,2.48,0.00,18.22,22.61,26.34,14.98,49.23,1025.97,2045.12,2623.36,2521.60,2862.64,599.98,611.49,10.80,0000 0000 0000 0000 000000
2016-12-05 10:29:25,0.25,2.49,0.00,18.23,22.63,26.36,15.02,49.40,1025.98,2045.04,2619.51,2518.71,2859.39,600.02,611.45,10.85,0000 0000 0000 0000 000000
2016-12-05 10:34:26,0.25,2.50,0.00,18.27,22.65,26.40,14.90,49.40,1025.92,2045.00,2615.56,2515.85,2856.29,599.75,611.00,10.90,0000 0000 0000 0000 000000
2016-12-05 10:39:27,0.25,2.52,0.00,18.29,22.67,26.44,15.00,49.54,1025.94,2045.00,2611.77,2513.04,2853.11,600.27,611.49,10.95,0000 0000 0000 0000 000000
2016-12-05 10:44:29,0.25,2.53,0.00,18.30,22.69,26.45,14.98,49.49,1025.93,2045.00,2607.96,2510.22,2849.82,599.90,611.10,11.00,0000 0000 0000 0000 000000
2016-12-05 10:49:30,0.26,2.54,0.00,18.35,22.72,26.47,15.01,49.48,1025.92,2045.00,2604.10,2507.34,2846.61,599.93,610.91,11.05,0000 0000 0000 0000 000000
2016-12-05 10:54:31,0.25,2.55,0.00,18.37,22.74,26.50,15.00,49.47,1025.90,2044.98,2600.31,2504.52,2843.37,600.01,611.04,11.10,0000 0000 0000 0000 000000
2016-12-05 10:59:33,0.25,2.57,0.00,18.40,22.77,26.53,15.01,49.24,1025.90,2044.93,2596.46,2501.65,2840.08,600.15,611.06,11.15,0000 0000 0000 0000 000000
2016-12-05 11:04:34,0.22,2.58,0.00,18.42,22.79,26.53,14.92,49.30,1025.90,2044.60,2592.45,2498.73,2836.76,599.84,610.85,11.20,0000 0000 0000 0000 000000
2016-12-05 11:09:36,0.24,2.59,0.00,18.43,22.82,26.56,14.86,49.27,1025.90,2044.43,2588.54,2495.95,2833.58,599.79,610.68,11.25,0000 0000 0000 0000 000000
2016-12-05 11:14:37,0.22,2.60,0.00,18.47,22.83,26.58,15.05,49.40,1025.90,2044.15,2584.66,2493.22,2830.34,600.19,611.03,11.30,0000 0000 0000 0000 000000
2016-12-05 11:19:38,0.26,2.62,0.00,18.49,22.86,26.62,14.97,49.25,1025.90,2044.01,2580.75,2490.29,2827.02,599.95,610.75,11.35,0000 0000 0000 0000 000000
2016-12-05 11:24:40,0.25,2.63,0.00,18.50,22.88,26.65,14.94,49.28,1025.90,2044.00,2576.91,2487.46,2823.87,599.72,610.52,11.40,0000 0000 0000 0000 000000
2016-12-05 11:29:41,0.25,2.64,0.00,18.52,22.90,26.68,14.87,49.38,1025.90,2044.00,2573.22,2484.73,2820.79,599.67,610.38,11.45,0000 0000 0000 0000 000000
2016-12-05 11:34:42,0.25,2.65,0.00,18.56,22.92,26.70,15.01,49.33,1025.90,2043.99,2569.45,2481.92,2817.62,600.07,610.70,11.50,0000 0000 0000 0000 000000
2016-12-05 11:39:44,0.25,2.67,0.00,18.56,22.94,26.70,14.87,49.22,1025.90,2043.98,2565.67,2479.16,2814.57,599.78,610.38,11.55,0000 0000 0000 0000 000000
2016-12-05 11:44:45,0.24,2.68,0.00,18.59,22.97,26.74,15.03,49.24,1025.90,2043.98,2562.01,2476.40,2811.50,600.33,610.84,11.60,0000 0000 0000 0000 000000
2016-12-05 11:49:46,0.25,2.69,0.00,18.62,22.99,26.75,14.91,49.23,1025.90,2043.92,2558.42,2473.65,2808.34,599.97,610.47,11.65,0000 0000 0000 0000 000000
2016-12-05 11:54:47,0.22,2.70,0.00,18.61,23.02,26.80,14.89,49.27,1025.90,2043.55,2554.65,2470.75,2805.10,599.79,610.28,11.70,0000 0000 0000 0000 000000
2016-12-05 11:59:49,0.23,2.72,0.00,18.64,23.04,26.79,14.96,49.31,1025.90,2043.21,2550.68,2467.85,2801.78,600.11,610.61,11.75,0000 0000 0000 0000 000000
2016-12-05 12:04:50,0.27,2.73,0.00,18.67,23.06,26.82,15.02,49.17,1025.90,2043.05,2546.66,2464.89,2798.43,600.11,610.56,11.80,0000 0000 0000 0000 000000
2016-12-05 12:09:52,0.32,2.75,0.00,18.68,23.08,26.84,14.92,49.16,1025.90,2043.01,2542.09,2461.52,2794.64,599.90,610.27,11.85,0000 0000 0000 0000 000000
2016-12-05 12:14:53,0.37,2.76,0.00,18.72,23.09,26.85,14.90,49.15,1025.86,2043.00,2536.65,2457.68,2790.33,599.93,610.19,11.90,0000 0000 0000 0000 000000
2016-12-05 12:19:55,0.38,2.78,0.00,18.74,23.12,26.89,14.90,49.22,1025.87,2043.00,2531.04,2453.69,2785.86,599.68,609.89,11.96,0000 0000 0000 0000 000000
2016-12-05 12:24:56,0.39,2.80,0.00,18.76,23.13,26.91,14.89,49.06,1025.86,2042.99,2525.37,2449.65,2781.27,599.88,610.07,12.01,0000 0000 0000 0000 000000
2016-12-05 12:29:58,0.40,2.82,0.00,18.79,23.14,26.92,14.91,49.13,1025.61,2042.98,2519.50,2445.47,2776.55,599.84,609.80,12.06,0000 0000 0000 0000 000000
2016-12-05 12:34:59,0.41,2.84,0.00,18.80,23.16,26.97,14.97,49.20,1025.45,2042.96,2513.44,2441.11,2771.72,599.72,609.55,12.11,0000 0000 0000 0000 000000
2016-12-05 12:40:00,0.36,2.86,0.00,18.80,23.17,26.98,14.90,49.04,1025.43,2042.71,2507.61,2436.96,2766.93,599.95,609.80,12.16,0000 0000 0000 0000 000000
2016-12-05 12:45:02,0.31,2.88,0.00,18.83,23.19,27.01,14.97,49.10,1025.46,2042.31,2502.37,2433.17,2762.58,600.08,609.88,12.21,0000 0000 0000 0000 000000
2016-12-05 12:50:03,0.33,2.89,0.00,18.83,23.20,27.02,14.83,48.92,1025.46,2042.11,2497.39,2429.69,2758.57,599.75,609.56,12.26,0000 0000 0000 0000 000000
2016-12-05 12:55:04,0.34,2.91,0.00,18.86,23.22,27.05,14.92,48.98,1025.53,2042.04,2492.38,2426.12,2754.59,599.87,609.63,12.31,0000 0000 0000 0000 000000
2016-12-05 13:00:05,0.33,2.93,0.00,18.86,23.22,27.07,14.93,49.03,1025.45,2042.02,2487.53,2422.61,2750.77,600.14,609.89,12.36,0000 0000 0000 0000 000000